Wind_Speed
10 11 12 13 13 13 13 12 11 10 10 11 11 9 8 8 8 8 8 10 11 11 11 10 6 4 5 6 6 5 4 6 8 11 11 9 8 9 9 9 9 12 13 12 11 11 11 10 10
8 9 9 11 12 12 11 10 10 9 9 10 10 9 9 8 6 5 5 6 6 7 7 8 8 7 4 2 3 3 3 2 2 6 9 9 10 8 9 9 9 9 9 10 10 11 12 11 10
6 6 8 10 11 11 10 8 7 7 7 8 9 8 8 8 9 7 5 3 3 3 4 5 5 5 5 5 2 1 0 1 2 3 4 6 8 8 9 9 10 10 9 10 10 11 12 12 12
4 5 7 9 10 11 10 8 6 5 5 6 8 7 7 5 6 8 8 7 6 5 4 3 4 5 5 4 4 4 3 5 4 4 4 6 7 8 9 10 10 11 11 11 12 12 12 13 13
2 4 7 9 11 12 11 8 6 4 4 4 5 6 7 5 5 5 7 9 8 7 7 6 5 6 6 6 5 5 5 6 7 8 8 8 9 9 10 10 11 12 12 13 13 15 15 15 15
4 5 7 10 12 13 12 8 5 4 3 2 3 6 8 9 6 5 4 4 4 5 5 4 5 5 6 8 8 9 8 8 9 9 10 12 13 13 14 13 13 13 13 14 14 15 15 17 17
6 7 10 12 13 14 12 7 3 4 4 3 6 6 8 10 8 7 6 5 5 5 6 5 4 5 6 7 9 10 11 12 12 12 13 13 13 14 16 18 18 17 17 16 16 17 17 17 17
10 11 13 13 14 14 11 7 5 5 4 5 6 7 8 8 7 7 9 10 9 9 10 10 10 9 9 9 9 11 13 14 16 16 17 17 17 17 17 18 19 19 19 21 21 20 20 20 20
14 15 16 17 17 16 12 8 9 8 7 6 7 7 7 5 5 7 8 10 11 12 13 14 14 14 13 13 13 13 13 15 17 19 20 21 22 22 22 21 21 22 21 21 21 21 22 23 24
16 17 19 21 20 16 11 10 12 12 9 9 8 9 8 7 8 9 10 10 11 12 13 13 15 17 18 19 19 18 18 19 18 18 19 21 24 26 26 26 26 26 26 26 25 24 24 24 24
19 20 22 21 19 15 12 13 15 14 12 13 11 10 11 11 11 12 12 13 15 15 16 16 15 16 17 18 19 19 20 21 22 22 21 21 21 23 24 26 28 30 31 31 31 30 29 29 29
21 22 22 20 18 15 15 16 15 14 15 14 14 15 13 14 13 13 12 14 15 17 17 18 18 17 17 17 18 19 20 22 23 24 24 25 25 26 26 26 27 28 30 33 34 35 34 34 34
23 24 23 20 19 18 19 19 16 15 15 16 17 16 16 15 15 15 16 16 17 17 19 18 18 19 19 20 20 21 22 24 26 27 28 28 29 30 30 31 31 32 32 32 33 34 35 37 38
25 24 23 22 23 22 22 21 18 16 16 17 17 16 15 15 16 17 19 20 21 19 17 19 19 19 20 22 23 24 25 25 24 26 27 29 31 33 35 36 37 37 36 36 36 37 37 37 38
27 25 24 25 26 25 24 22 20 19 19 19 19 18 18 18 19 19 21 20 19 19 20 19 20 21 21 22 23 24 26 27 28 29 30 31 32 33 35 36 39 41 42 43 43 43 42 41 43
29 27 27 26 26 26 24 25 23 22 20 20 20 21 21 22 22 23 22 19 18 18 18 19 20 21 22 23 23 24 25 26 27 29 31 33 34 36 37 38 40 42 43 45 46 47 47 49 50
30 30 28 27 25 27 26 24 25 24 24 24 24 25 24 24 24 23 23 21 19 19 20 20 21 22 23 25 26 28 29 31 32 33 35 35 37 38 40 42 43 44 46 48 48 49 51 52 53
33 28 27 26 27 28 27 26 27 27 27 28 28 28 27 26 25 23 22 22 22 22 23 25 25 26 27 28 29 30 31 32 35 37 38 40 41 43 43 43 45 48 49 51 53 54 55 55 56
31 29 27 28 31 32 31 30 31 30 30 32 31 30 29 28 26 26 25 24 25 28 29 29 29 31 32 32 32 32 32 34 37 37 39 42 44 46 49 50 51 51 51 52 54 57 57 58 59
31 31 30 31 34 35 34 33 33 32 33 33 32 30 29 28 27 27 28 27 29 32 33 34 34 33 33 35 35 34 34 35 37 39 43 46 47 49 51 52 55 58 60 61 61 59 60 62 62
35 35 34 36 36 38 37 37 34 35 35 33 32 31 31 30 30 29 28 29 31 33 35 36 36 37 36 36 38 41 42 42 43 44 47 50 53 55 57 58 59 61 64 64 64 63 64 65 67
38 36 38 39 40 41 39 42 35 33 34 30 30 30 32 32 33 32 30 30 30 31 35 37 39 40 41 42 43 42 44 47 47 49 52 54 57 60 61 62 63 64 66 66 67 68 69 69 69
43 40 42 42 44 46 44 41 41 33 30 29 30 32 34 34 34 33 32 31 32 34 36 36 39 39 39 40 42 44 46 49 51 52 55 58 61 63 66 68 69 71 72 73 74 73 72 72 71
43 46 45 45 48 52 45 41 45 32 29 29 31 33 33 33 33 32 33 35 36 38 40 40 40 43 44 46 48 50 52 54 56 57 59 62 64 65 68 71 72 73 74 75 77 78 78 79 82
43 42 45 48 48 46 41 41 42 38 32 30 31 32 32 32 32 34 37 39 39 40 42 43 44 46 49 52 53 55 55 57 61 61 63 66 67 70 72 74 74 75 76 77 79 79 80 81 82
43 44 44 44 43 41 41 44 39 38 38 36 35 33 32 32 34 35 37 38 41 44 47 46 47 51 53 55 58 60 58 60 62 65 68 71 74 75 77 80 81 81 81 82 82 81 81 82 84
43 44 36 39 40 42 42 40 40 40 39 39 37 36 36 37 38 40 42 45 47 47 48 50 54 56 57 57 60 63 64 65 67 70 73 76 78 79 81 83 83 83 83 82 81 80 80 80 80
47 40 40 40 39 40 42 41 42 42 43 41 41 40 39 38 39 42 45 48 50 51 51 54 56 59 59 59 61 64 67 69 69 73 76 78 81 84 85 84 84 84 81 80 79 79 80 81 81
44 43 41 40 43 44 44 40 41 44 46 47 46 42 42 43 46 49 50 51 53 53 56 57 57 58 60 62 65 67 68 72 75 77 80 82 84 85 85 83 82 80 80 80 81 82 82 82 82
47 48 46 47 43 43 46 47 50 50 50 49 48 49 46 47 49 51 52 54 54 58 61 59 58 59 64 66 66 69 73 76 80 83 84 85 84 83 82 81 82 82 83 83 83 84 86 86 86
Wind_Direction
80 69 56 47 42 39 41 36 45 47 56 55 52 56 59 67 70 66 58 56 56 58 54 48 41 56 79 84 88 101 157 196 214 227 236 240 241 239 239 244 246 251 254 257 260 260 263 260 258
76 57 46 38 33 26 35 29 31 44 58 58 57 60 59 56 49 68 68 65 55 47 48 51 47 38 24 38 64 76 99 110 181 214 225 229 235 238 241 237 238 239 239 248 250 254 255 256 262
72 47 36 27 24 18 15 24 31 35 51 57 55 54 53 46 40 35 50 59 65 52 30 23 26 37 37 29 353 298 265 170 187 213 227 231 230 230 236 243 246 248 243 242 244 250 256 258 257
65 47 26 19 8 10 2 4 32 32 46 49 48 40 45 40 40 30 27 23 15 9 2 359 346 342 350 356 356 347 294 267 256 243 240 242 244 248 250 251 249 247 246 244 242 241 245 252 251
48 20 360 355 352 354 353 358 14 11 33 43 22 16 11 17 16 23 26 28 26 24 12 2 345 324 309 304 308 310 310 306 287 270 264 263 259 261 257 254 258 261 262 260 258 255 252 249 252
340 340 329 334 338 342 341 348 357 351 359 346 319 338 348 341 339 345 354 359 359 4 4 357 344 332 316 304 297 290 289 291 293 292 287 277 272 271 269 266 263 263 264 264 263 262 261 259 257
310 318 318 322 328 334 332 323 314 332 334 314 297 300 317 321 313 306 305 305 300 304 300 292 293 306 306 296 285 283 283 281 280 281 283 284 285 283 277 274 272 271 269 267 268 268 269 269 269
300 305 308 312 319 324 319 298 287 289 305 308 307 297 295 297 295 301 302 303 301 296 288 287 290 289 286 285 289 288 280 277 276 275 273 273 271 272 276 280 280 277 272 269 268 268 268 268 269
295 299 304 305 308 312 306 283 280 282 282 296 305 301 307 292 256 280 289 290 292 291 289 289 288 284 281 282 285 285 284 283 280 278 277 273 272 272 271 270 272 276 277 276 274 273 271 270 269
288 294 301 301 303 299 286 279 284 290 281 281 297 303 297 284 274 265 264 269 271 270 272 279 287 288 287 288 288 285 284 287 287 286 286 285 283 280 277 276 275 273 273 273 272 272 271 270 270
285 293 299 298 294 287 272 278 282 286 284 272 285 288 291 283 277 272 270 274 276 273 267 267 275 281 283 282 283 288 291 291 292 292 291 289 287 287 286 285 281 277 275 274 273 271 271 271 271
287 292 294 290 287 278 271 281 281 280 279 278 284 290 287 277 273 262 272 286 287 276 272 271 272 274 277 277 278 281 284 288 289 290 292 289 287 287 286 284 283 281 282 278 275 274 273 272 271
289 293 289 281 282 278 275 278 278 274 276 279 280 283 282 274 271 268 277 286 283 279 270 266 267 275 281 282 282 282 283 287 290 287 283 281 279 279 279 279 280 280 280 279 278 278 278 276 274
285 288 281 276 279 276 275 277 276 274 273 274 278 279 277 273 274 274 278 285 285 280 274 267 265 267 270 275 281 284 284 280 281 282 283 285 286 286 285 282 280 278 277 274 275 277 277 276 275
280 279 274 274 278 278 276 276 276 275 276 275 275 275 273 271 272 278 283 280 274 269 269 269 268 268 268 269 271 276 277 280 283 284 283 282 282 282 283 282 282 283 284 283 280 277 275 273 272
277 273 270 272 274 273 272 275 275 274 272 274 277 276 275 277 283 286 286 284 278 271 267 267 269 272 275 276 278 279 280 281 280 279 281 283 283 283 282 281 281 282 281 278 278 278 277 277 276
271 268 269 269 265 269 270 272 274 273 273 274 276 277 278 278 279 280 280 282 280 277 275 273 273 274 278 283 285 286 288 289 290 289 288 285 283 283 283 283 281 279 279 280 279 276 275 275 273
266 271 266 265 265 262 263 264 269 273 277 278 278 279 278 276 274 275 277 280 278 276 276 277 278 278 278 281 283 287 288 289 290 291 290 293 292 289 284 281 279 279 279 279 278 278 277 276 275
267 264 262 265 264 262 261 265 270 274 276 276 275 274 274 272 272 273 274 277 281 281 276 274 272 274 276 277 278 277 281 284 284 285 285 283 282 283 286 288 286 282 279 277 276 277 276 276 276
264 266 267 261 259 259 261 265 269 272 275 274 272 268 267 267 268 270 271 271 270 270 272 270 270 270 273 275 276 276 276 277 281 282 281 281 281 280 279 279 279 281 281 280 279 277 276 276 273
265 265 265 260 256 259 264 266 270 271 271 270 267 265 267 269 272 269 266 268 270 269 268 269 271 271 271 272 274 276 277 276 276 278 280 280 279 278 278 277 277 277 278 276 276 276 276 275 275
265 264 261 261 262 263 262 271 273 268 268 268 266 267 268 274 273 269 267 268 268 273 277 277 276 276 277 277 276 273 273 275 275 276 277 277 276 277 277 278 278 277 276 276 276 275 275 273 273
266 261 262 263 263 265 264 271 272 266 265 264 266 268 270 272 275 272 274 277 278 281 281 280 279 278 281 281 281 277 274 271 273 275 274 274 274 275 275 276 275 276 276 276 275 275 273 273 273
268 265 265 265 265 264 266 272 270 268 261 263 267 269 270 273 272 271 273 277 280 279 282 285 284 283 282 282 279 275 274 273 275 276 276 276 276 276 278 278 278 279 278 277 276 276 276 275 276
267 266 266 264 265 270 272 265 269 271 267 265 265 266 268 269 270 272 273 273 275 278 281 282 279 278 281 280 280 280 278 279 279 281 282 283 283 283 283 282 281 281 280 280 280 280 280 280 279
263 258 258 262 267 269 267 267 272 271 274 275 270 271 272 275 274 273 272 273 277 280 281 278 279 280 281 289 288 285 284 284 284 285 285 285 284 284 284 286 287 287 287 287 287 287 287 286 286
261 259 260 260 260 263 267 272 273 273 273 272 276 279 281 282 283 283 281 281 284 286 287 290 293 292 292 289 288 287 287 288 287 287 288 287 287 288 288 289 289 289 290 291 291 291 290 288 286
258 256 253 258 265 269 271 272 274 275 273 274 275 278 281 281 280 283 285 285 287 286 287 289 291 292 290 290 289 288 286 287 290 291 290 291 291 291 291 292 292 292 292 291 290 288 287 285 284
255 253 255 259 260 267 270 273 277 276 276 275 277 283 284 282 283 285 286 286 285 286 288 288 289 290 289 290 289 289 290 292 293 292 292 291 290 290 290 291 291 291 291 290 290 290 289 289 288
249 247 249 254 266 275 272 267 273 277 279 281 283 284 280 279 281 282 283 284 286 288 287 287 287 288 292 294 294 293 291 292 291 289 290 290 293 293 294 294 294 293 292 292 292 292 291 291 290
Height
5888 5888 5888 5888 5889 5887 5886 5886 5885 5883 5883 5882 5881 5880 5880 5879 5879 5880 5877 5876 5875 5875 5875 5874 5874 5874 5874 5874 5873 5873 5873 5873 5872 5873 5874 5874 5874 5875 5875 5875 5875 5876 5876 5877 5877 5876 5876 5876 5875
5889 5889 5889 5888 5888 5887 5887 5885 5884 5884 5883 5882 5881 5881 5880 5879 5878 5877 5877 5876 5875 5875 5874 5874 5875 5874 5874 5875 5875 5874 5874 5874 5874 5873 5872 5872 5873 5873 5873 5874 5874 5875 5875 5875 5875 5875 5875 5875 5875
5889 5889 5889 5888 5887 5887 5886 5885 5884 5883 5883 5882 5881 5881 5880 5879 5878 5877 5876 5876 5875 5875 5875 5875 5874 5874 5874 5874 5874 5874 5874 5874 5874 5874 5874 5874 5873 5872 5872 5872 5872 5873 5873 5873 5873 5872 5873 5873 5873
5889 5889 5889 5888 5887 5887 5886 5885 5884 5883 5882 5882 5881 5880 5880 5878 5878 5878 5877 5877 5876 5876 5876 5875 5875 5874 5874 5874 5873 5873 5873 5873 5873 5873 5873 5873 5872 5872 5872 5872 5871 5871 5871 5870 5870 5870 5870 5870 5870
5889 5889 5888 5887 5886 5886 5885 5884 5884 5883 5882 5882 5880 5880 5879 5878 5878 5877 5877 5877 5877 5876 5876 5875 5875 5875 5875 5874 5874 5873 5873 5872 5871 5871 5871 5870 5870 5870 5871 5871 5871 5870 5870 5869 5869 5869 5869 5868 5868
5888 5888 5888 5887 5886 5885 5884 5883 5882 5882 5881 5881 5881 5879 5879 5877 5877 5877 5876 5876 5875 5875 5875 5874 5874 5874 5873 5873 5872 5872 5872 5872 5871 5870 5869 5869 5869 5869 5869 5869 5869 5869 5869 5868 5868 5867 5867 5867 5867
5887 5887 5886 5885 5885 5884 5883 5882 5881 5881 5880 5880 5879 5879 5878 5876 5875 5875 5874 5874 5874 5874 5873 5872 5872 5872 5872 5871 5871 5870 5870 5869 5869 5869 5869 5868 5868 5868 5867 5867 5867 5867 5866 5866 5865 5865 5865 5864 5864
5885 5885 5884 5883 5883 5882 5881 5880 5879 5879 5878 5878 5877 5877 5876 5875 5874 5873 5872 5872 5872 5872 5871 5871 5870 5870 5869 5869 5868 5869 5868 5868 5867 5867 5866 5866 5866 5865 5865 5864 5864 5863 5863 5863 5863 5862 5862 5861 5860
5883 5883 5881 5880 5881 5880 5878 5878 5877 5877 5877 5876 5875 5875 5874 5873 5873 5872 5871 5871 5870 5869 5869 5868 5868 5868 5867 5867 5866 5866 5866 5865 5865 5865 5864 5864 5863 5863 5862 5861 5860 5860 5860 5859 5859 5858 5857 5857 5857
5881 5880 5879 5877 5877 5876 5875 5874 5874 5875 5875 5874 5873 5872 5872 5871 5870 5870 5869 5868 5868 5867 5867 5866 5865 5865 5864 5864 5864 5863 5863 5863 5862 5862 5862 5861 5860 5860 5859 5858 5857 5856 5855 5855 5854 5854 5853 5851 5851
5878 5877 5875 5874 5873 5873 5872 5871 5871 5870 5871 5870 5871 5871 5869 5869 5868 5866 5866 5865 5864 5863 5863 5863 5863 5862 5861 5860 5860 5859 5859 5858 5858 5858 5858 5857 5856 5855 5855 5854 5853 5852 5851 5850 5848 5848 5847 5846 5845
5874 5873 5871 5870 5869 5869 5868 5868 5867 5867 5866 5867 5866 5866 5866 5865 5864 5863 5862 5861 5861 5860 5859 5858 5859 5858 5858 5858 5857 5856 5855 5855 5854 5853 5853 5852 5851 5850 5849 5848 5847 5846 5846 5845 5844 5843 5842 5841 5840
5869 5868 5867 5865 5865 5865 5864 5863 5863 5863 5862 5862 5862 5862 5861 5860 5860 5859 5858 5858 5857 5856 5855 5855 5854 5854 5854 5853 5853 5853 5853 5852 5851 5850 5848 5846 5845 5843 5843 5841 5840 5839 5839 5839 5838 5837 5837 5836 5835
5864 5863 5862 5861 5860 5860 5859 5858 5858 5858 5858 5858 5857 5857 5856 5855 5854 5854 5853 5853 5852 5851 5851 5851 5850 5850 5849 5848 5847 5847 5846 5845 5844 5844 5843 5842 5840 5839 5837 5836 5834 5832 5832 5831 5830 5830 5830 5829 5827
5858 5858 5857 5856 5855 5854 5853 5853 5853 5853 5853 5853 5852 5852 5851 5851 5850 5850 5849 5848 5847 5846 5846 5845 5845 5844 5843 5843 5842 5842 5840 5840 5839 5838 5836 5835 5833 5832 5831 5829 5827 5825 5824 5824 5823 5821 5820 5819 5818
5852 5852 5851 5851 5850 5848 5849 5847 5847 5847 5848 5848 5847 5846 5845 5845 5845 5844 5843 5843 5842 5842 5841 5841 5841 5840 5839 5838 5837 5837 5836 5835 5834 5832 5830 5829 5827 5825 5823 5822 5820 5818 5816 5814 5814 5812 5811 5810 5809
5844 5844 5845 5844 5844 5842 5843 5841 5840 5841 5842 5841 5841 5840 5839 5839 5838 5838 5837 5837 5836 5835 5835 5834 5833 5833 5832 5831 5830 5829 5828 5828 5827 5826 5825 5824 5821 5819 5817 5815 5812 5810 5808 5806 5804 5803 5800 5799 5797
5836 5838 5839 5837 5837 5836 5836 5836 5835 5834 5834 5834 5833 5833 5832 5832 5831 5831 5831 5831 5830 5830 5829 5828 5827 5826 5824 5823 5822 5822 5821 5820 5818 5817 5816 5814 5812 5810 5807 5804 5802 5801 5799 5796 5794 5792 5790 5788 5786
5829 5831 5832 5832 5828 5827 5829 5829 5829 5828 5828 5827 5826 5826 5825 5825 5825 5824 5823 5823 5823 5823 5822 5821 5819 5818 5817 5816 5814 5813 5812 5810 5809 5807 5805 5803 5802 5799 5798 5796 5794 5791 5788 5785 5781 5780 5778 5776 5774
5822 5822 5825 5824 5820 5819 5820 5822 5822 5822 5821 5820 5820 5819 5819 5819 5818 5817 5817 5817 5816 5815 5815 5814 5812 5810 5808 5807 5806 5804 5802 5799 5797 5796 5794 5793 5790 5787 5785 5782 5779 5776 5774 5771 5769 5767 5765 5763 5760
5814 5813 5815 5814 5813 5810 5811 5811 5814 5814 5813 5813 5814 5813 5813 5813 5812 5811 5810 5809 5809 5809 5808 5807 5805 5803 5800 5798 5797 5795 5793 5790 5787 5785 5782 5780 5777 5774 5772 5768 5766 5764 5761 5758 5755 5751 5748 5746 5745
5803 5805 5803 5804 5803 5802 5803 5799 5804 5805 5804 5805 5806 5807 5807 5806 5805 5804 5803 5802 5801 5801 5801 5799 5798 5797 5796 5794 5792 5788 5785 5782 5779 5776 5772 5769 5766 5763 5759 5755 5752 5749 5746 5744 5741 5737 5733 5730 5727
5794 5795 5794 5794 5793 5790 5791 5793 5792 5795 5797 5796 5797 5797 5796 5796 5795 5794 5795 5795 5794 5792 5790 5788 5787 5784 5783 5781 5779 5776 5772 5769 5766 5763 5759 5756 5753 5749 5745 5742 5738 5734 5731 5727 5724 5720 5717 5714 5710
5784 5783 5785 5784 5781 5777 5783 5784 5780 5788 5788 5788 5787 5787 5786 5786 5784 5784 5784 5783 5782 5782 5780 5777 5775 5774 5772 5769 5766 5762 5760 5757 5754 5749 5745 5741 5736 5733 5730 5726 5721 5716 5713 5709 5705 5702 5697 5693 5689
5775 5775 5772 5770 5768 5770 5773 5772 5773 5775 5779 5781 5779 5778 5777 5776 5775 5775 5774 5772 5771 5769 5768 5765 5763 5761 5759 5756 5753 5751 5747 5744 5740 5736 5731 5727 5722 5717 5712 5708 5703 5698 5694 5690 5685 5681 5677 5674 5670
5762 5762 5761 5758 5760 5762 5761 5759 5765 5766 5767 5768 5770 5771 5770 5769 5768 5765 5764 5762 5760 5758 5756 5753 5750 5748 5745 5742 5740 5737 5732 5728 5724 5719 5714 5709 5704 5698 5693 5687 5683 5677 5672 5668 5663 5659 5655 5652 5648
5752 5749 5755 5751 5751 5750 5750 5752 5754 5756 5756 5757 5759 5759 5759 5757 5755 5754 5753 5750 5748 5745 5742 5739 5736 5733 5730 5727 5725 5721 5717 5713 5708 5703 5697 5691 5685 5679 5674 5669 5662 5657 5652 5646 5641 5636 5632 5628 5624
5739 5744 5740 5740 5741 5741 5741 5742 5743 5744 5744 5746 5746 5747 5747 5746 5744 5742 5738 5735 5733 5730 5727 5724 5721 5719 5715 5710 5707 5704 5699 5695 5689 5684 5679 5673 5666 5660 5653 5647 5642 5636 5630 5625 5620 5615 5611 5606 5602
5730 5729 5731 5732 5731 5731 5732 5733 5734 5733 5733 5734 5735 5735 5734 5732 5729 5726 5724 5722 5719 5716 5712 5709 5706 5703 5699 5694 5691 5686 5681 5677 5670 5664 5658 5651 5645 5639 5633 5627 5621 5615 5609 5603 5598 5592 5587 5581 5576
5715 5716 5717 5718 5723 5724 5722 5722 5720 5720 5720 5721 5722 5720 5718 5717 5714 5711 5709 5706 5704 5700 5697 5694 5689 5686 5683 5679 5674 5668 5663 5656 5649 5643 5636 5630 5623 5617 5611 5605 5599 5592 5586 5580 5574 5568 5562 5556 5550